Regional Weather Roundup
Issued by NWS

Home | Current Version | Previous Version | Graphics & Text | Print | Product List | Glossary On
Versions: 1 2 3 4 5 6 7 8 9 10 11 12 13 14 15 16 17 18 19 20 21 22 23 24 25 26 27 28 29 30 31 32 33 34 35 36 37 38 39 40 41 42 43 44 45 46 47 48 49 50
000
ASUS43 KIND 220409
RWRIN

WEATHER ROUNDUP FOR INDIANA
NATIONAL WEATHER SERVICE INDIANAPOLIS IN
1100 PM EST TUE NOV 21 2017

NOTE: "FAIR" INDICATES FEW OR NO CLOUDS BELOW 12,000 FEET WITH NO
SIGNIFICANT WEATHER AND/OR OBSTRUCTIONS TO VISIBILITY.

* - STATION DOES NOT REPORT WEATHER SUCH AS PRECIPITATION OR FOG.

+ - STATION NOT QUALITY CONTROLLED BY THE NATIONAL WEATHER SERVICE.
    USE DATA WITH CAUTION...ESPECIALLY DEWPOINT AND RELATIVE
    HUMIDITY OBSERVATIONS.

INZ001>003-010>013-019-020-220500-
NORTHWEST INDIANA

CITY           SKY/WX    TMP DP  RH WIND       PRES   REMARKS
GARY /AIRPORT/ MOCLDY    32  15  49 NW14      30.18R WCI  22
KNOX *+        CLOUDY    32  25  74 NW15      30.13R WCI  22
LA PORTE +     CLOUDY    32  22  67 NW8       30.13R WCI  25
MICHIGAN CITY+ CLOUDY    32  23  69 NW14      30.14R WCI  22
MONTICELLO +   CLEAR     28  22  78 NW9       30.14R WCI  19
RENSSELAER +   CLEAR     28  21  74 W8        30.16R WCI  20
VALPARAISO     CLOUDY    34  21  59 NW10G20   30.15R WCI  26

$$

LMZ046-743>745-220500-
SOUTHERN LAKE MICHIGAN

STATION/POSITION TIME  TEMP    WIND        PRES    WAVE
                       AIR SEA DIR/SP/G            HT
                 (UTC) (F)     (DEG/KT/KT) (MB)    (FT)
BURNS HARBOR     0340   34     340/ 13/ 22 1021.3R
MICHIGAN CITY    0340   33     310/ 22/ 25   N/A

$$

INZ004-005-014>016-021>024-220500-
NORTH CENTRAL INDIANA

CITY           SKY/WX    TMP DP  RH WIND       PRES   REMARKS
GOSHEN         CLOUDY    34  22  61 NW16      30.09R WCI  24
LOGANSPORT +   CLEAR     30  21  69 NW7       30.13R WCI  23
PERU/GRISSOM   CLEAR     30  24  78 NW10      30.10R WCI  21
ROCHESTER +    CLOUDY    34  27  75 NW9       30.11R WCI  26
SOUTH BEND     CLOUDY    33  24  69 NW13      30.11R WCI  24
WARSAW +       CLOUDY    32  25  74 NW12G17   30.09R WCI  23

$$

INZ006>009-017-018-025>027-220500-
NORTHEAST INDIANA

CITY           SKY/WX    TMP DP  RH WIND       PRES   REMARKS
AUBURN +       CLOUDY    34  27  75 NW9       30.06R WCI  26
FORT WAYNE     CLOUDY    35  27  72 NW9       30.08R WCI  28
HUNTINGTON +   CLOUDY    32  26  76 NW8       30.09R WCI  25
KENDALLVILLE + CLOUDY    33  27  78 NW5       30.06R WCI  29

$$

INZ028-029-035-036-043>045-051>053-220500-
WEST CENTRAL INDIANA

CITY           SKY/WX    TMP DP  RH WIND       PRES   REMARKS
CRAWFORDSVL +  CLEAR     28  24  84 NW12        N/A  WCI  18
GREENCASTLE +  CLEAR     32  23  69 NW5       30.15R WCI  27
LAFAYETTE      CLEAR     29  24  82 NW8       30.16R WCI  21
TERRE HAUTE    CLEAR     31  23  72 NW8       30.18R WCI  23

$$

INZ030>032-037>040-046>048-054>057-064-065-220500-
CENTRAL INDIANA

CITY           SKY/WX    TMP DP  RH WIND       PRES   REMARKS
CP ATTERBURY + CLEAR     32  28  86 NW8       30.14R WCI  25
FRANKFORT +    CLOUDY    32  27  80 NW7       30.14S WCI  26
INDIANAPOLIS   CLEAR     31  24  75 NW12      30.14R WCI  22
-EAGLE CREEK   CLEAR     32  24  72 NW10      30.12R WCI  24
KOKOMO +       CLEAR     31  25  78 NW10      30.12R WCI  22
MARION +       CLOUDY    32  28  83 NW8       30.11R WCI  25
MT COMFORT *+  CLEAR     30  28  93 NW10      30.12R WCI  21
SHELBYVILLE    CLEAR     33  26  75 NW10      30.11R WCI  25
ZIONSVILLE +   CLEAR     29  25  82 NW7       30.12R WCI  22

$$

INZ033-034-041-042-049-050-058-059-220500-
EAST CENTRAL INDIANA

CITY           SKY/WX    TMP DP  RH WIND       PRES   REMARKS
MUNCIE         CLEAR     33  27  78 NW9       30.09R WCI  25
RICHMOND +     CLOUDY    32  30  93 NW14G20   30.08R WCI  22

$$

INZ060-061-067>069-081>083-085>088-220500-
SOUTHWEST INDIANA

CITY           SKY/WX    TMP DP  RH WIND       PRES   REMARKS
EVANSVILLE     CLEAR     39  27  62 N14       30.19R WCI  31
HUNTINGBURG +  MOCLDY    39  31  72 N12       30.16R WCI  32
WASHINGTON +   CLEAR     33  22  65 NW7G20    30.19R WCI  27

$$

INZ062-063-066-070>080-084-089>092-220500-
SOUTH CENTRAL AND SOUTHEAST INDIANA

CITY           SKY/WX    TMP DP  RH WIND       PRES   REMARKS
BEDFORD +      CLEAR     36  27  69 N8G17     30.14R WCI  29
BLOOMINGTON    CLEAR     33  24  69 VRB6      30.14R WCI  28
MADISON *+     CLOUDY    37  32  81 NW9       30.13R WCI  31
NORTH VERNON + CLOUDY    34  28  80 NW10G16   30.13R WCI  26
SEYMOUR +      CLOUDY    37  28  70 N13       30.14  WCI  29

$$





USA.gov is the U.S. government's official web portal to all federal, state and local government web resources and services.